Location: Esp�n
(42.4593°N, 0.2047°W)
Time: 07:54:23
(UTC+00:00)

STARLINK-70 - Pass Details

Date: 04 October 2020
Orbit: 441 x 442 km, 53.0° (Epoch: 21 October)

Event Time Altitude Azimuth Distance (km) Brightness Sun altitude
Exits shadow 04:08:22 - 165° (SSE) 1,814 6.3 -21.5°
Maximum altitude 04:10:54 12° 127° (SE) 1,463 6.3 -21.1°
Drops below altitude 10° 04:12:07 10° 107° (ESE) 1,553 6.8 -20.9°
Sets 04:15:28 0° 72° (ENE) 2,429 8.5 -20.3°
